ARG1835 SAVC-SABE

Flight info

Callsign ARG1835
Flight time 1h 55m
Altitude 37000
Route GATUD2C GATUD UP664 TRE UT693 BCA UW22 VALOS VALOS9Q
Aircraft B738/M-SDE2E3FGHIRWXY/LB1

Departure

Time 2026-04-20 01:42
Airport General Enrique Mosconi International Airport (SAVC)

Arrival

Time 2026-04-20 03:37
Airport Aeroparque Jorge Newbery (SABE)
Time Latitude Longitude Altitude Speed Heading
2026-04-20 00:51 -45.78948 -67.46885 195 ft 0 kts 225°
2026-04-20 01:30 -45.78942 -67.46876 212 ft 4 kts 220°
2026-04-20 01:30 -45.78923 -67.46861 197 ft 4 kts 163°
2026-04-20 01:31 -45.78913 -67.46875 209 ft 1 kts 87°
2026-04-20 01:31 -45.78913 -67.46882 209 ft 0 kts 87°
2026-04-20 01:35 -45.78913 -67.46879 209 ft 1 kts 87°
2026-04-20 01:35 -45.78912 -67.46848 201 ft 3 kts 87°
2026-04-20 01:35 -45.78911 -67.46819 209 ft 3 kts 87°
2026-04-20 01:36 -45.78898 -67.46798 204 ft 3 kts 26°
2026-04-20 01:36 -45.78873 -67.46798 199 ft 5 kts 356°
2026-04-20 01:36 -45.78833 -67.46800 200 ft 6 kts 358°
2026-04-20 01:36 -45.78789 -67.46802 198 ft 6 kts 358°
2026-04-20 01:37 -45.78761 -67.46840 197 ft 6 kts 276°
2026-04-20 01:37 -45.78769 -67.46900 203 ft 6 kts 258°
2026-04-20 01:37 -45.78778 -67.46963 201 ft 7 kts 259°
2026-04-20 01:37 -45.78787 -67.47034 198 ft 7 kts 260°
2026-04-20 01:38 -45.78796 -67.47110 206 ft 9 kts 259°
2026-04-20 01:38 -45.78809 -67.47201 207 ft 10 kts 258°
2026-04-20 01:38 -45.78824 -67.47309 206 ft 12 kts 259°
2026-04-20 01:38 -45.78839 -67.47429 206 ft 13 kts 260°
2026-04-20 01:39 -45.78857 -67.47563 207 ft 14 kts 259°
2026-04-20 01:39 -45.78875 -67.47705 198 ft 14 kts 259°
2026-04-20 01:39 -45.78893 -67.47844 195 ft 14 kts 259°
2026-04-20 01:39 -45.78911 -67.47976 205 ft 13 kts 259°
2026-04-20 01:40 -45.78927 -67.48102 207 ft 12 kts 260°
2026-04-20 01:40 -45.78920 -67.48190 206 ft 9 kts 314°
2026-04-20 01:40 -45.78866 -67.48226 211 ft 9 kts 345°
2026-04-20 01:40 -45.78808 -67.48241 202 ft 8 kts 352°
2026-04-20 01:41 -45.78755 -67.48249 198 ft 6 kts
2026-04-20 01:41 -45.78736 -67.48195 197 ft 7 kts 83°
2026-04-20 01:41 -45.78703 -67.47928 199 ft 61 kts 79°
2026-04-20 01:41 -45.78578 -67.46990 206 ft 129 kts 79°
2026-04-20 01:42 -45.78368 -67.45452 202 ft 184 kts 81°
2026-04-20 01:42 -45.78129 -67.43540 736 ft 190 kts 78°
2026-04-20 01:42 -45.77905 -67.41695 1558 ft 199 kts 77°
2026-04-20 01:42 -45.77637 -67.39638 2100 ft 215 kts 77°
2026-04-20 01:43 -45.77332 -67.37455 2631 ft 233 kts 76°
2026-04-20 01:43 -45.76760 -67.35261 3166 ft 236 kts 53°
2026-04-20 01:43 -45.75831 -67.33316 3795 ft 241 kts 52°
2026-04-20 01:43 -45.74889 -67.31260 4338 ft 252 kts 54°
2026-04-20 01:44 -45.73922 -67.29068 4778 ft 272 kts 55°
2026-04-20 01:44 -45.72901 -67.26736 5508 ft 279 kts 56°
2026-04-20 01:44 -45.71883 -67.24373 6441 ft 279 kts 57°
2026-04-20 01:44 -45.70888 -67.22032 7234 ft 282 kts 57°
2026-04-20 01:45 -45.69867 -67.19606 7958 ft 288 kts 57°
2026-04-20 01:45 -45.68827 -67.17122 8691 ft 294 kts 57°
2026-04-20 01:45 -45.67773 -67.14597 9467 ft 298 kts 58°
2026-04-20 01:45 -45.66701 -67.12023 10103 ft 307 kts 58°
2026-04-20 01:46 -45.65574 -67.09321 10425 ft 325 kts 58°
2026-04-20 01:46 -45.64376 -67.06447 10598 ft 348 kts 58°
2026-04-20 01:46 -45.63137 -67.03470 11416 ft 345 kts 58°
2026-04-20 01:46 -45.61920 -67.00548 12401 ft 341 kts 58°
2026-04-20 01:47 -45.60699 -66.97626 13108 ft 346 kts 58°
2026-04-20 01:47 -45.59878 -66.95666 13531 ft 350 kts 58°
2026-04-20 01:47 -45.58341 -66.92967 14115 ft 353 kts 35°
2026-04-20 01:47 -45.56292 -66.91066 14855 ft 351 kts 28°
2026-04-20 01:48 -45.54169 -66.89271 15357 ft 361 kts 27°
2026-04-20 01:48 -45.51949 -66.87420 15531 ft 380 kts 27°
2026-04-20 01:48 -45.49613 -66.85470 15736 ft 396 kts 27°
2026-04-20 01:48 -45.47189 -66.83435 15895 ft 413 kts 28°
2026-04-20 01:49 -45.44669 -66.81306 16048 ft 428 kts 28°
2026-04-20 01:49 -45.42088 -66.79114 16423 ft 436 kts 28°
2026-04-20 01:49 -45.39479 -66.76893 16986 ft 438 kts 28°
2026-04-20 01:49 -45.36858 -66.74662 17575 ft 440 kts 27°
2026-04-20 01:50 -45.34224 -66.72422 18128 ft 443 kts 27°
2026-04-20 01:50 -45.31569 -66.70168 18593 ft 446 kts 27°
2026-04-20 01:50 -45.28895 -66.67902 19027 ft 449 kts 27°
2026-04-20 01:50 -45.26203 -66.65624 19467 ft 452 kts 27°
2026-04-20 01:51 -45.23490 -66.63331 19898 ft 455 kts 27°
2026-04-20 01:51 -45.20755 -66.61021 20318 ft 459 kts 27°
2026-04-20 01:51 -45.18009 -66.58705 20727 ft 462 kts 27°
2026-04-20 01:51 -45.15234 -66.56367 21143 ft 465 kts 27°
2026-04-20 01:52 -45.12449 -66.54022 21524 ft 467 kts 27°
2026-04-20 01:52 -45.09605 -66.51631 21904 ft 471 kts 27°
2026-04-20 01:52 -45.06771 -66.49282 22270 ft 474 kts 27°
2026-04-20 01:52 -45.03896 -66.46985 22640 ft 476 kts 26°
2026-04-20 01:53 -45.00988 -66.44705 23007 ft 479 kts 26°
2026-04-20 01:53 -44.98065 -66.42425 23372 ft 481 kts 25°
2026-04-20 01:53 -44.95135 -66.40138 23801 ft 481 kts 26°
2026-04-20 01:53 -44.92204 -66.37845 24103 ft 483 kts 26°
2026-04-20 01:54 -44.89251 -66.35531 24354 ft 487 kts 26°
2026-04-20 01:54 -44.86283 -66.33202 24598 ft 489 kts 26°
2026-04-20 01:54 -44.83302 -66.30863 24876 ft 491 kts 26°
2026-04-20 01:54 -44.80312 -66.28518 25152 ft 493 kts 26°
2026-04-20 01:55 -44.77308 -66.26165 25425 ft 495 kts 26°
2026-04-20 01:55 -44.74289 -66.23803 25686 ft 497 kts 26°
2026-04-20 01:55 -44.71265 -66.21440 26065 ft 496 kts 26°
2026-04-20 01:55 -44.68258 -66.19092 26537 ft 493 kts 25°
2026-04-20 01:56 -44.65262 -66.16757 26945 ft 492 kts 25°
2026-04-20 01:56 -44.62268 -66.14428 27237 ft 493 kts 25°
2026-04-20 01:56 -44.59266 -66.12095 27591 ft 492 kts 25°
2026-04-20 01:56 -44.56276 -66.09773 28027 ft 490 kts 25°
2026-04-20 01:57 -44.53295 -66.07461 28428 ft 489 kts 25°
2026-04-20 01:57 -44.50313 -66.05151 28764 ft 490 kts 25°
2026-04-20 01:57 -44.47331 -66.02843 29144 ft 489 kts 24°
2026-04-20 01:57 -44.44366 -66.00553 29687 ft 485 kts 24°
2026-04-20 01:58 -44.41420 -65.98281 30121 ft 483 kts 24°
2026-04-20 01:58 -44.38496 -65.96025 30629 ft 477 kts 24°
2026-04-20 01:58 -44.35615 -65.93801 31214 ft 469 kts 24°
2026-04-20 01:58 -44.32782 -65.91618 31848 ft 461 kts 23°
2026-04-20 01:59 -44.29983 -65.89498 32331 ft 454 kts 19°
2026-04-20 01:59 -44.27041 -65.88176 32600 ft 439 kts
2026-04-20 01:59 -44.24025 -65.87994 32870 ft 432 kts 353°
2026-04-20 01:59 -44.21027 -65.88034 33161 ft 431 kts 353°
2026-04-20 02:00 -44.18053 -65.88067 33776 ft 423 kts 352°
2026-04-20 02:00 -44.15125 -65.88098 34193 ft 419 kts 352°
2026-04-20 02:00 -44.12211 -65.88095 34515 ft 417 kts 353°
2026-04-20 02:00 -44.09318 -65.88070 34841 ft 414 kts 353°
2026-04-20 02:01 -44.06441 -65.88049 35121 ft 413 kts 353°
2026-04-20 02:01 -44.03563 -65.88029 35296 ft 415 kts 353°
2026-04-20 02:01 -44.00665 -65.87889 35439 ft 423 kts
2026-04-20 02:01 -43.97797 -65.86668 35585 ft 442 kts 20°
2026-04-20 02:02 -43.95096 -65.84589 35833 ft 444 kts 23°
2026-04-20 02:02 -43.92430 -65.82399 36029 ft 445 kts 23°
2026-04-20 02:02 -43.89774 -65.80184 36200 ft 446 kts 23°
2026-04-20 02:02 -43.87109 -65.77971 36379 ft 446 kts 23°
2026-04-20 02:03 -43.84445 -65.75773 36600 ft 445 kts 22°
2026-04-20 02:03 -43.81781 -65.73603 36797 ft 444 kts 21°
2026-04-20 02:03 -43.76381 -65.69293 36849 ft 452 kts 22°
2026-04-20 02:04 -43.70905 -65.64899 37022 ft 457 kts 22°
2026-04-20 02:04 -43.65379 -65.60472 37085 ft 462 kts 22°
2026-04-20 02:05 -43.59782 -65.56005 37089 ft 467 kts 21°
2026-04-20 02:05 -43.54115 -65.51494 37111 ft 473 kts 21°
2026-04-20 02:06 -43.48385 -65.46941 37112 ft 476 kts 21°
2026-04-20 02:06 -43.42654 -65.42393 37100 ft 475 kts 21°
2026-04-20 02:07 -43.36931 -65.37863 37121 ft 473 kts 20°
2026-04-20 02:07 -43.31229 -65.33364 37132 ft 473 kts 20°
2026-04-20 02:08 -43.25527 -65.28874 37116 ft 472 kts 20°
2026-04-20 02:08 -43.19836 -65.24403 37115 ft 470 kts 20°
2026-04-20 02:09 -43.14118 -65.20114 37122 ft 467 kts 18°
2026-04-20 02:09 -43.08397 -65.15938 37121 ft 466 kts 18°
2026-04-20 02:10 -43.02682 -65.11760 37124 ft 466 kts 18°
2026-04-20 02:10 -42.96971 -65.07571 37099 ft 466 kts 18°
2026-04-20 02:11 -42.91268 -65.03386 37108 ft 465 kts 17°
2026-04-20 02:11 -42.85572 -64.99216 37115 ft 465 kts 17°
2026-04-20 02:12 -42.79883 -64.95061 37118 ft 464 kts 17°
2026-04-20 02:12 -42.74191 -64.90913 37126 ft 464 kts 17°
2026-04-20 02:13 -42.68500 -64.86773 37126 ft 463 kts 17°
2026-04-20 02:13 -42.62812 -64.82646 37125 ft 463 kts 17°
2026-04-20 02:14 -42.57127 -64.78529 37128 ft 463 kts 17°
2026-04-20 02:14 -42.51442 -64.74419 37128 ft 463 kts 17°
2026-04-20 02:15 -42.45767 -64.70325 37117 ft 462 kts 16°
2026-04-20 02:15 -42.40096 -64.66242 37130 ft 461 kts 16°
2026-04-20 02:16 -42.34422 -64.62217 37132 ft 460 kts 15°
2026-04-20 02:16 -42.28723 -64.58308 37130 ft 459 kts 15°
2026-04-20 02:17 -42.23027 -64.54421 37106 ft 458 kts 15°
2026-04-20 02:17 -42.17344 -64.50535 37121 ft 458 kts 15°
2026-04-20 02:18 -42.11668 -64.46652 37126 ft 458 kts 15°
2026-04-20 02:18 -42.05984 -64.42770 37139 ft 458 kts 15°
2026-04-20 02:19 -42.00306 -64.38900 37131 ft 458 kts 15°
2026-04-20 02:19 -41.94617 -64.35030 37092 ft 458 kts 15°
2026-04-20 02:20 -41.88935 -64.31171 37121 ft 458 kts 15°
2026-04-20 02:20 -41.83251 -64.27320 37138 ft 457 kts 15°
2026-04-20 02:21 -41.74737 -64.21564 37125 ft 456 kts 14°
2026-04-20 02:22 -41.69074 -64.17746 37140 ft 456 kts 14°
2026-04-20 02:22 -41.63416 -64.13939 37143 ft 455 kts 14°
2026-04-20 02:23 -41.57728 -64.10119 37131 ft 454 kts 14°
2026-04-20 02:23 -41.52091 -64.06341 37136 ft 453 kts 14°
2026-04-20 02:24 -41.46470 -64.02580 37143 ft 451 kts 14°
2026-04-20 02:24 -41.40901 -63.98862 37144 ft 450 kts 14°
2026-04-20 02:25 -41.36220 -63.95743 37103 ft 449 kts 14°
2026-04-20 02:25 -41.30643 -63.92033 37143 ft 447 kts 13°
2026-04-20 02:26 -41.25079 -63.88339 37153 ft 446 kts 13°
2026-04-20 02:26 -41.19522 -63.84658 37154 ft 446 kts 13°
2026-04-20 02:27 -41.13967 -63.80984 37160 ft 446 kts 13°
2026-04-20 02:27 -41.08419 -63.77321 37155 ft 445 kts 13°
2026-04-20 02:28 -41.02868 -63.73664 37123 ft 445 kts 13°
2026-04-20 02:28 -40.97321 -63.70014 37145 ft 445 kts 13°
2026-04-20 02:29 -40.91773 -63.66372 37168 ft 446 kts 13°
2026-04-20 02:29 -40.86250 -63.62553 37160 ft 449 kts 16°
2026-04-20 02:30 -40.80773 -63.58545 37162 ft 450 kts 16°
2026-04-20 02:30 -40.75289 -63.54541 37165 ft 450 kts 16°
2026-04-20 02:31 -40.69794 -63.50572 37169 ft 450 kts 15°
2026-04-20 02:31 -40.64289 -63.46620 37143 ft 450 kts 15°
2026-04-20 02:32 -40.58787 -63.42680 37140 ft 450 kts 15°
2026-04-20 02:32 -40.53291 -63.38752 37159 ft 450 kts 15°
2026-04-20 02:33 -40.47787 -63.34825 37167 ft 450 kts 15°
2026-04-20 02:33 -40.42279 -63.30903 37156 ft 450 kts 15°
2026-04-20 02:34 -40.36776 -63.26991 37154 ft 450 kts 15°
2026-04-20 02:34 -40.31269 -63.23084 37165 ft 450 kts 15°
2026-04-20 02:35 -40.25762 -63.19184 37157 ft 450 kts 15°
2026-04-20 02:35 -40.20251 -63.15288 37159 ft 450 kts 15°
2026-04-20 02:36 -40.14747 -63.11404 37137 ft 449 kts 15°
2026-04-20 02:36 -40.09254 -63.07534 37152 ft 449 kts 15°
2026-04-20 02:37 -40.03752 -63.03668 37167 ft 449 kts 15°
2026-04-20 02:37 -39.98251 -62.99809 37157 ft 449 kts 15°
2026-04-20 02:38 -39.92740 -62.95950 37158 ft 450 kts 15°
2026-04-20 02:38 -39.87223 -62.92093 37158 ft 450 kts 15°
2026-04-20 02:39 -39.81703 -62.88240 37159 ft 450 kts 15°
2026-04-20 02:39 -39.76181 -62.84394 37155 ft 451 kts 15°
2026-04-20 02:40 -39.70653 -62.80550 37148 ft 450 kts 15°
2026-04-20 02:40 -39.65130 -62.76715 37150 ft 450 kts 15°
2026-04-20 02:41 -39.59611 -62.72892 37153 ft 450 kts 15°
2026-04-20 02:41 -39.54091 -62.69074 37154 ft 450 kts 15°
2026-04-20 02:42 -39.48564 -62.65282 37152 ft 448 kts 14°
2026-04-20 02:42 -39.43011 -62.61649 37130 ft 446 kts 14°
2026-04-20 02:43 -39.37459 -62.58061 37147 ft 446 kts 14°
2026-04-20 02:43 -39.31912 -62.54464 37148 ft 446 kts 14°
2026-04-20 02:44 -39.26332 -62.50839 37137 ft 446 kts 14°
2026-04-20 02:44 -39.20789 -62.47240 37106 ft 446 kts 14°
2026-04-20 02:45 -39.15258 -62.43655 37136 ft 445 kts 14°
2026-04-20 02:45 -39.09721 -62.40074 37145 ft 445 kts 14°
2026-04-20 02:46 -39.04220 -62.36522 37145 ft 445 kts 14°
2026-04-20 02:46 -38.98645 -62.32929 37153 ft 446 kts 14°
2026-04-20 02:47 -38.93101 -62.29361 37153 ft 445 kts 14°
2026-04-20 02:47 -38.87557 -62.25799 37169 ft 446 kts 14°
2026-04-20 02:48 -38.82011 -62.22243 37167 ft 446 kts 14°
2026-04-20 02:48 -38.76459 -62.18688 37187 ft 446 kts 14°
2026-04-20 02:49 -38.70925 -62.15007 37150 ft 457 kts 20°
2026-04-20 02:49 -38.65668 -62.10297 37145 ft 464 kts 24°
2026-04-20 02:50 -38.60448 -62.05425 37148 ft 465 kts 24°
2026-04-20 02:50 -38.55195 -62.00595 37152 ft 465 kts 23°
2026-04-20 02:51 -38.49912 -61.95805 37150 ft 466 kts 23°
2026-04-20 02:51 -38.44616 -61.91028 37094 ft 466 kts 23°
2026-04-20 02:52 -38.39319 -61.86257 37148 ft 466 kts 23°
2026-04-20 02:52 -38.34017 -61.81489 37155 ft 467 kts 23°
2026-04-20 02:53 -38.28699 -61.76715 37154 ft 468 kts 23°
2026-04-20 02:53 -38.23378 -61.71946 37154 ft 469 kts 23°
2026-04-20 02:54 -38.18040 -61.67171 37158 ft 469 kts 23°
2026-04-20 02:54 -38.12702 -61.62402 37154 ft 469 kts 24°
2026-04-20 02:55 -38.07365 -61.57644 37159 ft 469 kts 24°
2026-04-20 02:55 -38.02021 -61.52889 37153 ft 469 kts 24°
2026-04-20 02:56 -37.96671 -61.48137 37149 ft 469 kts 24°
2026-04-20 02:56 -37.91326 -61.43404 37150 ft 469 kts 24°
2026-04-20 02:57 -37.85984 -61.38682 37145 ft 468 kts 24°
2026-04-20 02:57 -37.80649 -61.33974 37144 ft 467 kts 24°
2026-04-20 02:58 -37.75321 -61.29279 37138 ft 467 kts 24°
2026-04-20 02:58 -37.69987 -61.24589 37139 ft 467 kts 24°
2026-04-20 02:59 -37.64656 -61.19909 37140 ft 467 kts 24°
2026-04-20 02:59 -37.59322 -61.15233 37132 ft 467 kts 23°
2026-04-20 03:00 -37.53983 -61.10563 37132 ft 467 kts 23°
2026-04-20 03:00 -37.48642 -61.05899 37133 ft 468 kts 23°
2026-04-20 03:01 -37.43291 -61.01234 37126 ft 468 kts 23°
2026-04-20 03:01 -37.37937 -60.96575 37126 ft 468 kts 23°
2026-04-20 03:02 -37.32569 -60.91912 37123 ft 469 kts 23°
2026-04-20 03:02 -37.27195 -60.87252 37120 ft 470 kts 23°
2026-04-20 03:03 -37.22722 -60.83379 37119 ft 470 kts 23°
2026-04-20 03:03 -37.17332 -60.78720 37120 ft 470 kts 23°
2026-04-20 03:04 -37.11940 -60.74066 37095 ft 471 kts 23°
2026-04-20 03:04 -37.06550 -60.69423 37102 ft 470 kts 23°
2026-04-20 03:05 -37.01161 -60.64789 37103 ft 470 kts 23°
2026-04-20 03:05 -36.95772 -60.60163 37104 ft 469 kts 23°
2026-04-20 03:06 -36.90349 -60.55516 37103 ft 469 kts 23°
2026-04-20 03:06 -36.84967 -60.50913 37101 ft 469 kts 23°
2026-04-20 03:07 -36.79583 -60.46314 37074 ft 469 kts 23°
2026-04-20 03:07 -36.74208 -60.41730 37093 ft 468 kts 23°
2026-04-20 03:08 -36.68828 -60.37155 37099 ft 468 kts 23°
2026-04-20 03:08 -36.63437 -60.32579 37092 ft 469 kts 23°
2026-04-20 03:09 -36.58040 -60.28002 37088 ft 470 kts 23°
2026-04-20 03:09 -36.52631 -60.23420 37067 ft 471 kts 23°
2026-04-20 03:10 -36.47213 -60.18857 37086 ft 470 kts 22°
2026-04-20 03:10 -36.41789 -60.14315 37079 ft 470 kts 22°
2026-04-20 03:11 -36.36369 -60.09783 37074 ft 470 kts 22°
2026-04-20 03:11 -36.30952 -60.05257 37080 ft 470 kts 22°
2026-04-20 03:12 -36.25534 -60.00737 37075 ft 469 kts 22°
2026-04-20 03:12 -36.20116 -59.96223 37069 ft 469 kts 22°
2026-04-20 03:13 -36.14738 -59.91750 37068 ft 468 kts 22°
2026-04-20 03:13 -36.09293 -59.87231 37049 ft 468 kts 22°
2026-04-20 03:14 -36.03891 -59.82753 37058 ft 468 kts 22°
2026-04-20 03:14 -35.98485 -59.78281 37061 ft 468 kts 22°
2026-04-20 03:15 -35.93079 -59.73817 37058 ft 467 kts 22°
2026-04-20 03:15 -35.87676 -59.69362 37049 ft 467 kts 22°
2026-04-20 03:15 -35.84971 -59.67135 36899 ft 470 kts 22°
2026-04-20 03:16 -35.82236 -59.64891 36392 ft 473 kts 23°
2026-04-20 03:16 -35.79508 -59.62646 35819 ft 471 kts 23°
2026-04-20 03:16 -35.77002 -59.60585 35248 ft 471 kts 24°
2026-04-20 03:16 -35.74264 -59.58336 34603 ft 471 kts 24°
2026-04-20 03:17 -35.71540 -59.56101 33962 ft 471 kts 24°
2026-04-20 03:17 -35.68806 -59.53861 33164 ft 473 kts 25°
2026-04-20 03:17 -35.66067 -59.51619 32481 ft 472 kts 25°
2026-04-20 03:17 -35.63331 -59.49379 31773 ft 473 kts 25°
2026-04-20 03:18 -35.60593 -59.47141 31068 ft 473 kts 26°
2026-04-20 03:18 -35.57850 -59.44901 30344 ft 474 kts 26°
2026-04-20 03:18 -35.55106 -59.42661 29495 ft 475 kts 26°
2026-04-20 03:18 -35.52348 -59.40410 28613 ft 476 kts 27°
2026-04-20 03:19 -35.49594 -59.38165 27758 ft 476 kts 27°
2026-04-20 03:19 -35.46834 -59.35917 26866 ft 476 kts 27°
2026-04-20 03:19 -35.44059 -59.33686 25965 ft 477 kts 26°
2026-04-20 03:19 -35.41236 -59.31550 25063 ft 477 kts 25°
2026-04-20 03:20 -35.38401 -59.29471 24383 ft 473 kts 25°
2026-04-20 03:20 -35.35583 -59.27414 23698 ft 470 kts 25°
2026-04-20 03:20 -35.32785 -59.25359 22898 ft 467 kts 26°
2026-04-20 03:20 -35.30016 -59.23310 22189 ft 462 kts 26°
2026-04-20 03:21 -35.27284 -59.21280 21479 ft 457 kts 26°
2026-04-20 03:21 -35.24593 -59.19278 20816 ft 452 kts 27°
2026-04-20 03:21 -35.21902 -59.17279 20160 ft 448 kts 27°
2026-04-20 03:21 -35.19248 -59.15337 19505 ft 442 kts 25°
2026-04-20 03:22 -35.16546 -59.13567 18822 ft 438 kts 23°
2026-04-20 03:22 -35.13832 -59.11910 18135 ft 434 kts 22°
2026-04-20 03:22 -35.11131 -59.10292 17404 ft 430 kts 22°
2026-04-20 03:22 -35.08466 -59.08686 16739 ft 426 kts 22°
2026-04-20 03:23 -35.05831 -59.07081 16089 ft 421 kts 23°
2026-04-20 03:23 -35.03228 -59.05482 15444 ft 417 kts 23°
2026-04-20 03:23 -35.00658 -59.03896 14815 ft 413 kts 24°
2026-04-20 03:23 -34.98105 -59.02317 14145 ft 410 kts 24°
2026-04-20 03:24 -34.95570 -59.00751 13462 ft 407 kts 24°
2026-04-20 03:24 -34.93061 -58.99203 12783 ft 403 kts 24°
2026-04-20 03:24 -34.90572 -58.97669 12134 ft 398 kts 24°
2026-04-20 03:24 -34.88075 -58.96226 11439 ft 395 kts 21°
2026-04-20 03:25 -34.85595 -58.94898 11119 ft 383 kts 21°
2026-04-20 03:25 -34.83208 -58.93634 11001 ft 366 kts 21°
2026-04-20 03:25 -34.80926 -58.92411 10895 ft 351 kts 21°
2026-04-20 03:25 -34.78738 -58.91224 10799 ft 337 kts 21°
2026-04-20 03:26 -34.76630 -58.90077 10632 ft 327 kts 21°
2026-04-20 03:26 -34.74583 -58.88965 10496 ft 317 kts 21°
2026-04-20 03:26 -34.72603 -58.87890 10366 ft 307 kts 21°
2026-04-20 03:26 -34.70683 -58.86849 10238 ft 298 kts 21°
2026-04-20 03:27 -34.68822 -58.85840 10118 ft 289 kts 21°
2026-04-20 03:27 -34.67012 -58.84860 9938 ft 283 kts 21°
2026-04-20 03:27 -34.65220 -58.83891 9636 ft 281 kts 21°
2026-04-20 03:27 -34.63438 -58.82927 9345 ft 279 kts 21°
2026-04-20 03:28 -34.61674 -58.81973 9056 ft 277 kts 21°
2026-04-20 03:28 -34.59921 -58.81026 8766 ft 275 kts 21°
2026-04-20 03:28 -34.56437 -58.79165 8171 ft 271 kts 18°
2026-04-20 03:29 -34.54608 -58.78703 7878 ft 268 kts
2026-04-20 03:29 -34.52748 -58.78506 7584 ft 267 kts
2026-04-20 03:29 -34.50895 -58.78339 7286 ft 267 kts
2026-04-20 03:29 -34.49050 -58.78160 7015 ft 266 kts
2026-04-20 03:30 -34.47212 -58.77963 6731 ft 265 kts
2026-04-20 03:30 -34.45384 -58.77755 6454 ft 264 kts
2026-04-20 03:30 -34.43561 -58.77541 6163 ft 262 kts
2026-04-20 03:30 -34.41747 -58.77328 5872 ft 261 kts
2026-04-20 03:31 -34.39946 -58.77087 5587 ft 259 kts 12°
2026-04-20 03:31 -34.38344 -58.76149 5307 ft 259 kts 40°
2026-04-20 03:31 -34.37296 -58.74402 5052 ft 259 kts 66°
2026-04-20 03:31 -34.36995 -58.72266 4813 ft 260 kts 92°
2026-04-20 03:32 -34.37498 -58.70169 4571 ft 262 kts 116°
2026-04-20 03:32 -34.38634 -58.68403 4345 ft 262 kts 130°
2026-04-20 03:32 -34.39911 -58.66838 4102 ft 260 kts 132°
2026-04-20 03:32 -34.41170 -58.65319 3873 ft 258 kts 131°
2026-04-20 03:33 -34.42438 -58.63768 3643 ft 255 kts 131°
2026-04-20 03:33 -34.43678 -58.62238 3401 ft 253 kts 131°
2026-04-20 03:33 -34.44902 -58.60722 3227 ft 247 kts 130°
2026-04-20 03:33 -34.46055 -58.59275 3137 ft 232 kts 127°
2026-04-20 03:34 -34.46992 -58.57756 2922 ft 221 kts 120°
2026-04-20 03:34 -34.47820 -58.56220 2666 ft 215 kts 120°
2026-04-20 03:34 -34.48629 -58.54743 2383 ft 204 kts 120°
2026-04-20 03:34 -34.49392 -58.53364 2109 ft 190 kts 120°
2026-04-20 03:35 -34.50105 -58.52080 1881 ft 176 kts 120°
2026-04-20 03:35 -34.50761 -58.50896 1646 ft 164 kts 120°
2026-04-20 03:35 -34.51372 -58.49792 1474 ft 151 kts 120°
2026-04-20 03:35 -34.51945 -58.48757 1275 ft 147 kts 121°
2026-04-20 03:36 -34.52509 -58.47741 1079 ft 144 kts 120°
2026-04-20 03:36 -34.53066 -58.46735 894 ft 145 kts 121°
2026-04-20 03:36 -34.53639 -58.45701 680 ft 149 kts 123°
2026-04-20 03:36 -34.54197 -58.44688 490 ft 141 kts 122°
2026-04-20 03:37 -34.54742 -58.43683 296 ft 143 kts 124°
2026-04-20 03:37 -34.55295 -58.42695 87 ft 138 kts 125°
2026-04-20 03:37 -34.55793 -58.41812 26 ft 104 kts 124°
2026-04-20 03:37 -34.56078 -58.41302 25 ft 42 kts 124°
2026-04-20 03:38 -34.56187 -58.41108 28 ft 17 kts 124°
2026-04-20 03:38 -34.56227 -58.40979 24 ft 16 kts 100°
2026-04-20 03:38 -34.56234 -58.40874 24 ft 9 kts 93°
2026-04-20 03:38 -34.56234 -58.40815 24 ft 4 kts 73°
2026-04-20 03:39 -34.56219 -58.40811 28 ft 2 kts 350°
2026-04-20 03:39 -34.56202 -58.40829 26 ft 4 kts 308°
2026-04-20 03:39 -34.56184 -58.40859 26 ft 4 kts 304°
2026-04-20 03:39 -34.56168 -58.40893 24 ft 5 kts 298°
2026-04-20 03:40 -34.56146 -58.40941 25 ft 7 kts 301°
2026-04-20 03:40 -34.56117 -58.40991 27 ft 7 kts 305°
2026-04-20 03:40 -34.56098 -58.41023 27 ft 7 kts 307°
2026-04-20 03:40 -34.56069 -58.41070 27 ft 7 kts 307°
2026-04-20 03:41 -34.56041 -58.41115 26 ft 7 kts 308°
2026-04-20 03:41 -34.56013 -58.41160 25 ft 7 kts 307°
2026-04-20 03:41 -34.55985 -58.41204 27 ft 6 kts 307°
2026-04-20 03:41 -34.55958 -58.41247 28 ft 6 kts 307°
2026-04-20 03:42 -34.55933 -58.41289 25 ft 6 kts 305°
2026-04-20 03:42 -34.55905 -58.41308 27 ft 5 kts
2026-04-20 03:42 -34.55874 -58.41289 24 ft 5 kts 32°
2026-04-20 03:42 -34.55844 -58.41275 28 ft 4 kts 351°
2026-04-20 03:43 -34.55826 -58.41299 28 ft 4 kts 300°
2026-04-20 03:43 -34.55813 -58.41327 27 ft 4 kts 301°
2026-04-20 03:43 -34.55799 -58.41353 27 ft 4 kts 303°
2026-04-20 03:43 -34.55785 -58.41378 26 ft 4 kts 304°
2026-04-20 03:44 -34.55770 -58.41405 26 ft 4 kts 304°
2026-04-20 03:44 -34.55753 -58.41435 26 ft 4 kts 304°
2026-04-20 03:44 -34.55738 -58.41467 25 ft 4 kts 297°
2026-04-20 03:44 -34.55725 -58.41499 26 ft 4 kts 295°
2026-04-20 03:45 -34.55721 -58.41534 24 ft 4 kts 260°
2026-04-20 03:45 -34.55727 -58.41567 24 ft 4 kts 266°
2026-04-20 03:45 -34.55719 -58.41599 29 ft 4 kts 296°
2026-04-20 03:45 -34.55705 -58.41628 24 ft 4 kts 302°
2026-04-20 03:46 -34.55690 -58.41656 24 ft 4 kts 304°
2026-04-20 03:46 -34.55665 -58.41662 26 ft 4 kts 25°
2026-04-20 03:46 -34.55640 -58.41641 24 ft 2 kts 35°
2026-04-20 03:46 -34.55630 -58.41632 24 ft 0 kts 34°